Location: Hilton Head Island
(32.2163°N, 80.7526°W)
Time: 11:28:01
(UTC-04:00)

S-56A Canister/Altair - Pass Details

Date: 20 February 2026
Orbit: 633 x 2484 km, 38.9° (Epoch: 10 March)

Event Time Altitude Azimuth Distance (km) Brightness Sun altitude
Exits shadow 06:35:57 - 277° (W) 4,285 10.6 -5.9°
Reaches altitude 10° 06:37:11 10° 273° (W) 4,048 10.5 -5.6°
Maximum altitude 06:46:08 28° 220° (SW) 3,367 10.5 -3.8°
Drops below altitude 10° 06:57:15 10° 169° (SSE) 5,048 12.0 -1.5°
Sets 07:02:15 0° 159° (SSE) 6,133 12.7 -0.4°
